STARLINK-3277 (50182 NORAD) Tracking and Keplerian Element Data
This shows tracking and keplerian element data for the satellite.
Feedback or suggestion? Click here.
Element | Value |
Catalog | 50182 |
Name | STARLINK-3277 |
Epoch Orbit | 130 |
Epoch Day | 140.58334491 |
Epoch Year | 2022 |
RAAN | 5.0519 |
Inclination | 53.2179 |
Eccentricity | 0.0002 |
Argument of Perigee | 39.8144 |
Mean Anonmoly | 186.6912 |
Mean Motion | 15.08845857 |
Decay Rate | -4.49E-05 |
L1 | 1 50182U 21125AC 22140.58334491 -.00004490 00000+0 -26413-3 0 9990 |
L2 | 2 50182 53.2179 5.0519 0002000 39.8144 186.6912 15.08845857 1304 |
Live tracking and technical data element details for STARLINK-3277 (NORAD 50182). STARLINK-3277 can be tracked NOW for your location showing map with azimuth and elevation plus other details from your city location.
Track the satellite on the map from your city or location and see movement details for azimuth, elevation, latitude, longitude, range, height, and movement on the map or in text.
IsCatalogInMostPopularTable: catalog: 50182, numindb: 24
Update: records affected: 1
GetName: 50182 STARLINK-3277
Hit Count: updated at: Sun, 22 May 2022 04:51:46 GMT